Hourly Data Report for October 05, 2017

All times are specified in Local Standard Time (LST). Add 1 hour to adjust for Daylight Saving Time where and when it is observed.

CHARLOTTETOWN A
PRINCE EDWARD ISLAND

46°17'21.000" N
63°07'09.000" W
48.50 m
8300301
71706
YYG

Download Data

Hourly Data (October 2017)
Hourly Data Report for October 5, 2017
Temp Definition
°C
Dew Point Temp Definition
°C
Rel Hum Definition
%
Wind Dir Definition
10's deg

Wind Spd Definition
km/h
Visibility Definition
km
Stn Press Definition
kPa
Hmdx Definition


Wind Chill Definition


Weather Definition


TIME
00:00 Legend Double Dagger 14.5 10.6 77 22 25 24.1 100.52     LegendNANA
01:00 Legend Double Dagger 14.4 10.7 78 21 25 24.1 100.44     LegendNANA
02:00 Legend Double Dagger 14.6 11.6 82 23 22 24.1 100.41     Mostly Cloudy
03:00 Legend Double Dagger 14.9 12.4 85 22 23 24.1 100.33     LegendNANA
04:00 Legend Double Dagger 14.9 12.8 87 23 19 24.1 100.35     LegendNANA
05:00 Legend Double Dagger 15.1 12.8 86 22 17 24.1 100.27     Mostly Cloudy
06:00 Legend Double Dagger 15.4 13.1 86 23 17 19.3 100.30     LegendNANA
07:00 Legend Double Dagger 15.3 13.2 87 25 24 24.1 100.34     LegendNANA
08:00 Legend Double Dagger 16.4 13.9 85 26 25 24.1 100.42     Mostly Cloudy
09:00 Legend Double Dagger 17.1 14.2 83 28 21 24.1 100.49     LegendNANA
10:00 Legend Double Dagger 16.6 12.1 74 33 17 24.1 100.55     LegendNANA
11:00 Legend Double Dagger 17.4 12.4 72 34 17 24.1 100.58     Mostly Cloudy
12:00 Legend Double Dagger 18.1 10.5 61 30 16 24.1 100.60     LegendNANA
13:00 Legend Double Dagger 18.5 10.1 58 27 18 24.1 100.56     LegendNANA
14:00 Legend Double Dagger 18.2 9.2 55 30 16 24.1 100.55     Mainly Clear
15:00 Legend Double Dagger 18.1 7.6 50 31 13 24.1 100.54     LegendNANA
16:00 Legend Double Dagger 17.4 10.8 65 3 10 24.1 100.55     LegendNANA
17:00 Legend Double Dagger 15.0 10.1 72 9 4 24.1 100.56     Mostly Cloudy
18:00 Legend Double Dagger 14.0 9.9 76 13 5 24.1 100.61     LegendNANA
19:00 Legend Double Dagger 11.0 9.5 90 36 1 24.1 100.67     LegendNANA
20:00 Legend Double Dagger 12.7 9.5 81 18 9 24.1 100.66     Mostly Cloudy
21:00 Legend Double Dagger 12.3 10.3 88 26 8 24.1 100.72     LegendNANA
22:00 Legend Double Dagger 12.0 10.1 88 24 7 24.1 100.76     LegendNANA
23:00 Legend Double Dagger 12.4 10.6 89 20 12 24.1 100.66     Mainly Clear

Notes on Data Quality.

Legend

  • E = Estimated
  • M = Missing
  • NA = Not Available
  • ‡ = Partner data that is not subject to review by the National Climate Archives
Date modified: